Powrót do katalogu

SL-8 DEB

AktywnyUNKNOWN
NORAD 1480·DEBRIS·🇷🇺 Russia

Wystrzelony Mar 15, 1965 z Baikonur Cosmodrome

Loading…

Następne Przeloty (najbliższe 24 godziny)

TLE

ŚwieżeSource: Space-Track

Epoka: Sep 14, 2026, 05:42 UTC

1 01480U 65020BE  26257.23788637  .00000035  00000-0  18572-3 0  9996
2 01480  56.0706  86.3587 0829937 208.6502 146.6327 12.64497365821385

Śledź SL-8 DEB w czasie rzeczywistym z AllMySat

Download on the App Store